Regional Weather Roundup
Issued by NWS Cleveland, OH

Home | Current Version | Previous Version | Graphics & Text | Print | Product List | Glossary On
Versions: 1 2 3 4 5 6 7 8 9 10 11 12 13 14 15 16 17 18 19 20 21 22 23 24 25 26 27 28 29 30 31 32 33 34 35 36 37 38 39 40 41 42 43 44 45 46 47 48 49 50
529
ASUS41 KCLE 211812
RWRCLE
OHIO REGIONAL WEATHER ROUNDUP
NATIONAL WEATHER SERVICE WILMINGTON, OH
200 PM EDT FRI JUL 21 2017

NOTE: "FAIR" INDICATES FEW OR NO CLOUDS BELOW 12,000 FEET WITH NO
SIGNIFICANT WEATHER AND/OR OBSTRUCTIONS TO VISIBILITY.

OHZ001>008-015>018-024>027-034-035-043-044-211900-
   NORTHWEST OHIO

CITY           SKY/WX    TMP DP  RH WIND       PRES   REMARKS
DEFIANCE       PTSUNNY  N/A N/A N/A NE6       30.00R
FINDLAY        FAIR      87  69  54 E6        29.98R HX  91
TOLEDO EXPRESS FAIR      85  67  54 CALM      29.99R
TOLEDO EXEC    FAIR      86  71  60 N5        29.99S HX  91
LIMA           FAIR      81  72  74 CALM      30.02R
$$

OHZ009>014-019>023-028>033-038-089-211900-
   NORTHEAST OHIO

CITY           SKY/WX    TMP DP  RH WIND       PRES   REMARKS
CLE-HOPKINS    PTSUNNY   89  71  55 N10       29.98F HX  95
CLE-LAKEFRONT  FAIR      83  72  69 N7        29.96F
CUY CO. ARPT   MOSUNNY   86  75  70 N9        29.99F HX  95
LORAIN-ELYRIA  FAIR      86  66  51 CALM      29.98F
ASHTABULA      FAIR      84  70  62 W6        29.99S
AKRON-CANTON   PTSUNNY   87  69  54 NE6       29.98F HX  91
WOOSTER        FAIR      86  70  58 CALM      29.99F HX  90
MANSFIELD      FAIR      88  70  55 N7        29.99F HX  93
YOUNGSTOWN     CLOUDY    87  69  54 CALM      29.98F HX  91
$$

OHZ042-051>053-060>062-070>072-077>081-211900-
  SOUTHWEST OHIO

CITY           SKY/WX    TMP DP  RH WIND       PRES   REMARKS
CINC-COVINGTON PTSUNNY   83  75  77 S8        30.04S HX  90
CINC-LUNKEN    FAIR      81  74  79 VRB3      30.03S
HAMILTON       FAIR      81  75  82 W5        30.04S
DAYTON         CLOUDY    77  69  76 SW9       30.05R
WRIGHT-PAT AFB PTSUNNY   77  71  82 W7        30.03S
DAYTON GENERAL FAIR      75  70  84 SW6       30.04S
WILMINGTON     FAIR      76  72  87 SW9       30.04R
$$

OHZ036-037-039>041-045>050-054>059-063>069-073>076-082>088-211900-
  CENTRAL AND SOUTHEAST OHIO

CITY           SKY/WX    TMP DP  RH WIND       PRES   REMARKS
COLUMBUS       CLOUDY    78  73  84 SW10      29.99R
OSU AIRPORT    PTSUNNY   80  78  94 SW10      29.99S FOG
BOLTON FIELD   NOT AVBL
RICKENBACK AFB FAIR      75  72  90 SW9       29.99F
NEWARK         CLOUDY    76  73  91 S9        29.99R
MARION         FAIR      85  71  63 CALM      29.99R HX  90
LANCASTER      FAIR      74  72  93 SW6       30.00F
ZANESVILLE     FAIR      76  71  85 S7        30.00S
NEW PHILLY     FAIR      86  73  65 E6        29.98F HX  93
$$




USA.gov is the U.S. government's official web portal to all federal, state and local government web resources and services.